TimeMST,TemperatureF,Dew PointF,Humidity,Sea Level PressureIn,VisibilityMPH,Wind Direction,Wind SpeedMPH,Gust SpeedMPH,PrecipitationIn,Events,Conditions,WindDirDegrees,DateUTC
12:25 AM,32.0,32.0,100,30.27,5.0,Calm,Calm,-,N/A,,Overcast,0,2013-01-25 07:25:00
12:53 AM,32.0,30.9,96,30.34,4.0,Calm,Calm,-,N/A,,Overcast,0,2013-01-25 07:53:00
1:27 AM,30.2,30.2,100,30.26,1.8,Calm,Calm,-,0.00,,Overcast,0,2013-01-25 08:27:00
1:53 AM,30.9,30.9,100,30.33,1.8,Calm,Calm,-,0.01,Snow,Light Snow,0,2013-01-25 08:53:00
2:05 AM,30.2,30.2,100,30.27,2.5,Calm,Calm,-,0.00,Snow,Light Snow,0,2013-01-25 09:05:00
2:25 AM,30.2,30.2,100,30.27,1.8,Calm,Calm,-,0.00,Snow,Light Snow,0,2013-01-25 09:25:00
2:36 AM,30.2,30.2,100,30.27,2.5,Calm,Calm,-,0.00,Snow,Light Snow,0,2013-01-25 09:36:00
2:43 AM,30.2,30.2,100,30.27,4.0,Calm,Calm,-,0.00,,Overcast,0,2013-01-25 09:43:00
2:53 AM,30.9,30.9,100,30.33,4.0,Calm,Calm,-,0.01,Snow,Light Snow,0,2013-01-25 09:53:00
3:26 AM,32.0,30.2,93,30.26,3.0,Calm,Calm,-,0.00,Snow,Light Snow,0,2013-01-25 10:26:00
3:53 AM,32.0,30.9,96,30.32,4.0,Calm,Calm,-,0.00,,Overcast,0,2013-01-25 10:53:00
4:21 AM,32.0,30.2,93,30.25,4.0,Calm,Calm,-,N/A,,Overcast,0,2013-01-25 11:21:00
4:53 AM,32.0,32.0,100,30.31,3.0,Calm,Calm,-,N/A,,Overcast,0,2013-01-25 11:53:00
5:13 AM,32.0,30.2,93,30.24,3.0,Calm,Calm,-,0.00,Snow,Light Snow,0,2013-01-25 12:13:00
5:35 AM,32.0,32.0,100,30.24,2.5,Calm,Calm,-,0.00,Snow,Light Snow,0,2013-01-25 12:35:00
5:42 AM,32.0,32.0,100,30.24,2.5,Calm,Calm,-,0.00,Snow,Light Snow,0,2013-01-25 12:42:00
5:53 AM,32.0,32.0,100,30.31,2.5,Calm,Calm,-,0.00,Snow,Light Snow,0,2013-01-25 12:53:00
6:01 AM,32.0,30.2,93,30.24,2.5,Calm,Calm,-,0.00,Snow,Light Snow,0,2013-01-25 13:01:00
6:19 AM,32.0,30.2,93,30.24,3.0,Calm,Calm,-,0.00,,Overcast,0,2013-01-25 13:19:00
6:38 AM,32.0,32.0,100,30.24,4.0,Calm,Calm,-,0.00,,Overcast,0,2013-01-25 13:38:00
6:53 AM,32.0,32.0,100,30.32,3.0,Calm,Calm,-,0.00,,Overcast,0,2013-01-25 13:53:00
7:06 AM,32.0,30.2,93,30.25,2.5,Calm,Calm,-,0.00,Snow,Light Snow,0,2013-01-25 14:06:00
7:14 AM,32.0,30.2,93,30.25,2.0,Calm,Calm,-,0.00,Snow,Light Snow,0,2013-01-25 14:14:00
7:34 AM,32.0,32.0,100,30.25,3.0,Calm,Calm,-,0.00,,Overcast,0,2013-01-25 14:34:00
7:53 AM,32.0,32.0,100,30.32,2.0,Calm,Calm,-,0.00,,Overcast,0,2013-01-25 14:53:00
8:03 AM,32.0,32.0,100,30.25,1.2,Calm,Calm,-,N/A,,Overcast,0,2013-01-25 15:03:00
8:38 AM,32.0,30.2,93,30.25,1.0,Calm,Calm,-,0.00,Snow,Light Snow,0,2013-01-25 15:38:00
8:46 AM,32.0,30.2,93,30.25,0.5,Calm,Calm,-,0.01,Fog-Snow,Light Snow,0,2013-01-25 15:46:00
8:53 AM,32.0,32.0,100,30.31,1.0,Calm,Calm,-,0.01,Snow,Light Snow,0,2013-01-25 15:53:00
9:03 AM,33.8,32.0,93,30.24,2.5,East,3.5,-,0.00,,Overcast,100,2013-01-25 16:03:00
9:17 AM,33.8,32.0,93,30.24,3.0,Calm,Calm,-,0.00,,Overcast,0,2013-01-25 16:17:00
9:29 AM,33.8,32.0,93,30.24,2.5,Calm,Calm,-,0.00,,Overcast,0,2013-01-25 16:29:00
9:53 AM,33.1,33.1,100,30.31,2.5,Calm,Calm,-,0.00,,Overcast,0,2013-01-25 16:53:00
10:11 AM,33.8,33.8,100,30.25,2.5,Calm,Calm,-,0.00,,Overcast,0,2013-01-25 17:11:00
10:21 AM,33.8,33.8,100,30.24,3.0,Calm,Calm,-,0.00,,Overcast,0,2013-01-25 17:21:00
10:53 AM,34.0,33.1,96,30.31,4.0,Calm,Calm,-,0.00,,Overcast,0,2013-01-25 17:53:00
11:21 AM,33.8,33.8,100,30.24,5.0,Calm,Calm,-,N/A,,Overcast,0,2013-01-25 18:21:00
11:28 AM,33.8,32.0,93,30.24,3.0,Calm,Calm,-,N/A,,Overcast,0,2013-01-25 18:28:00
11:36 AM,33.8,32.0,93,30.24,3.0,Calm,Calm,-,N/A,,Overcast,0,2013-01-25 18:36:00
11:53 AM,35.1,33.1,92,30.29,4.0,Calm,Calm,-,0.00,Rain,Light Rain,0,2013-01-25 18:53:00
12:53 PM,35.1,33.1,92,30.26,5.0,Calm,Calm,-,0.00,,Overcast,0,2013-01-25 19:53:00
1:27 PM,35.6,32.0,87,30.17,7.0,ENE,5.8,-,N/A,,Overcast,70,2013-01-25 20:27:00
1:34 PM,35.6,32.0,87,30.17,7.0,ENE,4.6,-,N/A,,Overcast,70,2013-01-25 20:34:00
1:49 PM,35.6,32.0,87,30.16,9.0,East,3.5,-,N/A,,Overcast,80,2013-01-25 20:49:00
1:53 PM,36.0,32.0,86,30.22,9.0,ENE,3.5,-,N/A,,Overcast,70,2013-01-25 20:53:00
2:30 PM,35.6,33.8,93,30.15,7.0,Calm,Calm,-,N/A,,Overcast,0,2013-01-25 21:30:00
2:40 PM,35.6,33.8,93,30.15,7.0,Calm,Calm,-,N/A,,Overcast,0,2013-01-25 21:40:00
2:53 PM,36.0,33.1,89,30.21,7.0,Calm,Calm,-,N/A,,Overcast,0,2013-01-25 21:53:00
3:00 PM,35.6,33.8,93,30.15,8.0,Calm,Calm,-,N/A,,Overcast,0,2013-01-25 22:00:00
3:30 PM,35.6,33.8,93,30.15,8.0,Calm,Calm,-,N/A,,Overcast,0,2013-01-25 22:30:00
3:45 PM,35.6,33.8,93,30.15,8.0,Calm,Calm,-,N/A,,Overcast,0,2013-01-25 22:45:00
3:53 PM,36.0,33.1,89,30.21,8.0,Calm,Calm,-,N/A,,Overcast,0,2013-01-25 22:53:00
4:53 PM,35.1,32.0,89,30.19,7.0,Calm,Calm,-,N/A,,Overcast,0,2013-01-25 23:53:00
5:53 PM,34.0,32.0,92,30.19,8.0,Calm,Calm,-,N/A,,Overcast,0,2013-01-26 00:53:00
6:53 PM,34.0,32.0,92,30.18,7.0,Calm,Calm,-,N/A,,Overcast,0,2013-01-26 01:53:00
7:53 PM,34.0,32.0,92,30.15,6.0,East,4.6,-,N/A,,Overcast,80,2013-01-26 02:53:00
8:53 PM,33.1,32.0,96,30.14,5.0,Calm,Calm,-,N/A,,Overcast,0,2013-01-26 03:53:00
9:53 PM,34.0,32.0,92,30.13,6.0,Calm,Calm,-,N/A,,Overcast,0,2013-01-26 04:53:00
10:53 PM,34.0,32.0,92,30.13,6.0,Calm,Calm,-,N/A,,Overcast,0,2013-01-26 05:53:00
11:53 PM,33.1,32.0,96,30.13,4.0,Calm,Calm,-,0.00,Rain,Light Rain,0,2013-01-26 06:53:00